Home > Weather > Garland > Past weeks

Flag for USA Past Weather in Garland, Texas, USA — Yesterday and Last 2 Weeks

Now
84 °F

Scattered clouds.


Feels Like: 90 °F
Forecast: 76 / 94 °F
Wind: 3 mph from North

Location: Mesquite Metro Airport

Current Time: Jun 29, 2016 at 11:21:17 AM

Latest Report: Jun 29, 2016 at 9:50 AM


Visibility: 10 mi

Pressure: 30.06 "Hg

Humidity: 66%

Dew Point: 72 °F

Location of GarlandLocation

Past Weather in Garland — Graph

°F

Garland Temperature Yesterday

Maximum temperature yesterday: 93 °F (at 12:50 PM)
Minimum temperature yesterday: 74 °F (at 6:15 AM)
Average temperature yesterday: 81 °F

High & Low Weather Summary for the Past Weeks

 TemperatureHumidityPressure
High97 °F (Jun 18, 3:50 PM)100% (Jun 15, 6:50 AM)30.23 "Hg (Jun 15, 6:50 AM)
Low72 °F (Jun 20, 6:50 AM)36% (Jun 17, 4:50 PM)29.79 "Hg (Jun 14, 6:50 PM)
Average82 °F76%30.02 "Hg
* Reported Jun 14 9:50 AM — Jun 29 9:50 AM, Garland, Weather by CustomWeather, © 2016

Note: Actual official high and low records may vary slightly from our data, if they occured in-between our weather recording intervals... More about our weather records

Advertising

Garland Weather History for the Previous 24 Hours

Scroll right to see more
 ConditionsComfort  
Time TempWeatherWind HumidityBarometerVisibility
9:50 AM
Wed, Jun 29
84 °FScattered clouds.3 mph66%30.06 "Hg10 mi
8:50 AM79 °FScattered clouds.No wind84%30.06 "Hg10 mi
7:50 AM77 °FSunny.No wind83%30.05 "Hg10 mi
6:50 AM73 °FClear.No wind94%30.04 "Hg10 mi
6:15 AM72 °FClear.No wind94%30.03 "Hg10 mi
5:55 AM73 °FClear.No wind93%30.02 "Hg10 mi
5:40 AM73 °FClear.No wind93%30.02 "Hg10 mi
5:15 AM74 °FClear.No wind91%30.02 "Hg10 mi
4:40 AM74 °FClear.No wind88%30.02 "Hg10 mi
4:15 AM72 °FClear.No wind93%30.01 "Hg10 mi
3:55 AM74 °FClear.No wind89%30.01 "Hg10 mi
3:35 AM72 °FClear.5 mph93%30.01 "Hg10 mi
3:15 AM73 °FClear.3 mph91%30.01 "Hg10 mi
2:35 AM74 °FClear.No wind88%30.00 "Hg10 mi
2:15 AM74 °FClear.No wind86%30.00 "Hg10 mi
1:35 AM74 °FClear.No wind84%30.00 "Hg10 mi
1:15 AM75 °FClear.No wind81%30.01 "Hg10 mi
12:55 AM76 °FClear.No wind79%30.01 "Hg10 mi
12:35 AM75 °FClear.No wind83%30.02 "Hg10 mi
12:15 AM74 °FClear.No wind81%30.03 "Hg10 mi
11:55 PM
Tue, Jun 28
77 °FClear.No wind77%30.03 "Hg10 mi
11:35 PM78 °FClear.3 mph75%30.03 "Hg10 mi
11:15 PM78 °FClear.No wind74%30.04 "Hg10 mi
10:55 PM79 °FClear.No wind71%30.03 "Hg10 mi
10:35 PM80 °FClear.No wind65%30.03 "Hg10 mi
10:15 PM79 °FClear.No wind68%30.03 "Hg10 mi
9:55 PM80 °FClear.3 mph64%30.03 "Hg10 mi
9:35 PM81 °FSunny.No wind64%30.03 "Hg10 mi
8:58 PM82 °FSunny.3 mph58%30.02 "Hg10 mi
8:35 PM84 °FSunny.No wind52%30.02 "Hg10 mi
8:15 PM86 °FSunny.5 mph46%30.01 "Hg10 mi
7:50 PM88 °FSunny.7 mph43%30.01 "Hg10 mi
6:50 PM90 °FSunny.7 mph41%29.99 "Hg10 mi
5:50 PM93 °FSunny.10 mph44%29.98 "Hg10 mi
4:50 PM90 °FBroken clouds.5 mph52%29.99 "Hg10 mi
3:50 PM91 °FScattered clouds.3 mph52%29.99 "Hg10 mi
2:50 PM81 °FScattered clouds.6 mph70%30.01 "Hg10 mi
1:50 PM84 °FThunderstorms. Partly sunny.8 mph58%30.04 "Hg10 mi
12:50 PM93 °FThunderstorms. Scattered clouds.10 mph47%30.09 "Hg10 mi
11:50 AM91 °FScattered clouds.8 mph52%30.09 "Hg10 mi
Weather by CustomWeather, © 2016

See weather overviewHow to use our weather pages